Location: Newark
(54.6833°N, 25.2833°E)
Time: 03:25:15
(UTC+00:00)

Tiros 1 despin weight - Pass Details

Date: 20 November 2019
Orbit: 594 x 642 km, 48.2° (Epoch: 13 December)

Event Time Altitude Azimuth Distance (km) Brightness Sun altitude
Rises 12:53:24 0° 242° (WSW) 2,826 ? 7.4°
Reaches altitude 10° 12:55:50 10° 232° (SW) 1,928 ? 7.1°
Maximum altitude 12:59:47 32° 169° (S) 1,024 ? 6.8°
Drops below altitude 10° 13:03:46 10° 106° (ESE) 1,948 ? 6.4°
Sets 13:06:14 0° 96° (E) 2,860 ? 6.1°
